COSMOS 249 DEB, 15535

Orbit data source: Space-Track

COSMOS 249 DEB, 15535 is space debris in LEO originally from a launch on Sun, 20 Oct 1968 UTC launched from the Tyuratam Missile And Space Complex (TTMTR). Debris objects in space refer to the collection of defunct objects orbiting the Earth. Examples of debris include non-operational satellites, rocket bodies, and fragments generated from explosions, collisions, or faulty payload assembly.

Loading next visibility...
Identifier
15535, 1968-091CY
Orbit
LEO
Country
Flag of CISCIS
Related business
Manufacturer
Unknown
Mission
Spacecraft
Bus & Motor
Unknown
Mass
Unknown
Launch date (UTC)
1968-10-20 (58 years ago)
Launch vehicle
Unknown
Launch site
Tyuratam Missile And Space Complex (TTMTR)
Object type
Payload
Rocket body
Debris
Shape & HBR
Unknown shape, 0.1 m
Radar Cross Section
Small (<0.1 m²)

Expand to show TLE details & history
Last TLE update: 16 hours ago

TLE from 16 hours ago
0 COSMOS 249 DEB
1 15535U 68091CY  26235.67049437  .00003476  00000-0  44873-3 0  9990
2 15535  62.3967  88.3011 0308299 219.1131 138.7293 14.54736827966645
Epoch: 2026-08-23T16:05Z
TLE epoch observation values (Epoch: 2026-08-23T16:05:30.713Z)
Latitude
0.00003°
Longitude
-125.04007°
Altitude
879.081 km
Speed
7.326 km/s
True Right ascension
05h 53m 12s
True Declination
0° 00' 00"
Sunlit
Object was in daylight at epoch
Visualization orbit readout
Latitude
Unknown
Longitude
Unknown
Altitude
Unknown
Speed
Unknown
Apparent Right ascension
Unknown
Apparent Declination
Unknown
Sunlit
N/A
Visualization observer readout
Local Sidereal Time
23:03:52
Azimuth
Unknown
Elevation
Unknown
Doppler factor
Unknown
Orbital elements
Apogee altitude
927.616 km
Perigee altitude
490.617 km
Semi-major axis
7,087.254 km
Eccentricity
0.03083
Inclination
62.3967°
RAAN
88.3011°
Arg. of periapsis
219.1131°
True anomaly
140.99337°
Mean anomaly
138.7293°
Eccentric anomaly
139.86785°
Mean motion
3.63769 °/min
Orbital period
98.96 mins
BSTAR
0.00044873
Loading maneuver chart data...
Computing Atmospheric mass density...
Loading historical data...
Loading historical data...
Loading historical data...
Loading historical data...
Loading historical data...
Loading historical data...
Loading historical data...

Documentation

Showing up to 5 results
|